Find Kosmos-2157

NORAD ID: 21728 Int'l Des: 1991-068 Owner: UNKSR Country: SU operational
LEOCIRCULARPOLAR

实时位置

正在加载3D地球...

关于 Kosmos-2157

正在加载描述...

即将过境

Passes for default location (London). Set your location on the main map for personalized predictions.

高度历史

Loading altitude history...

两行轨道根数

1 21728U 91068A 26107.11987669 .00000043 00000-0 17682-3 0 9991
2 21728 82.5837 356.8225 0004002 288.6229 71.4428 12.63248800593006
Epoch: Apr 17, 2026 • Age: 12 hours

当前状态

高度 1419.3 km
速度 7.15 km/s
星下点 46.03°N, 98.23°E
发射日期 Sep 28, 1991
运行时间 34.5 years
类型 other

技术详情

分类 Payload
质量 225.00 kg
干质量 225.00 kg
总质量 225.00 kg
长度 1.60 m
直径 0.80 m
跨度 7.00 m
形状 Cyl + Ant
制造商 NPOPM
平台类型 Strela-3
阶段状态 In Orbit
所有者/国家 UNKSR/SU

Most Searched